Hourly Data Report for October 04, 2017

All times are specified in Local Standard Time (LST). Add 1 hour to adjust for Daylight Saving Time where and when it is observed.

PILOT MOUND (AUT)
MANITOBA

49°11'27.700" N
98°54'17.500" W
470.30 m
5022125
71148
WPO

Download Data

Hourly Data (October 2017)
Hourly Data Report for October 4, 2017
Temp Definition
°C
Dew Point Temp Definition
°C
Rel Hum Definition
%
Wind Dir Definition
10's deg

Wind Spd Definition
km/h
Visibility Definition
km
Stn Press Definition
kPa
Hmdx Definition


Wind Chill Definition


Weather Definition


TIME
00:00 6.2 0.9 69 26 10   96.57     LegendNANA
01:00 6.1 2.3 77 27 10   96.60     LegendNANA
02:00 6.3 4.2 86 28 14   96.66     LegendNANA
03:00 6.5 3.8 83 29 17   96.68     LegendNANA
04:00 5.7 3.1 83 28 15   96.68     LegendNANA
05:00 5.5 2.8 82 28 14   96.71     LegendNANA
06:00 5.7 2.9 82 29 15   96.74     LegendNANA
07:00 5.0 2.3 83 26 20   96.76     LegendNANA
08:00 5.2 2.1 80 27 15   96.79     LegendNANA
09:00 5.7 2.0 77 25 21   96.80     LegendNANA
10:00 6.9 2.7 74 25 22   96.77     LegendNANA
11:00 8.1 1.8 64 25 18   96.73     LegendNANA
12:00 9.7 2.8 62 27 16   96.67     LegendNANA
13:00 10.3 2.5 59 26 19   96.60     LegendNANA
14:00 10.6 2.2 56 25 17   96.55     LegendNANA
15:00 10.6 1.9 55 24 22   96.47     LegendNANA
16:00 10.9 2.1 55 24 21   96.43     LegendNANA
17:00 10.1 1.7 56 24 18   96.40     LegendNANA
18:00 8.0 1.6 64 27 4   96.42     LegendNANA
19:00 5.7 0.9 71 25 11   96.41     LegendNANA
20:00 2.9 0.3 83 21 11   96.45     LegendNANA
21:00 1.6 -0.2 88 23 6   96.44     LegendNANA
22:00 2.4 0.2 85 25 9   96.42     LegendNANA
23:00 4.1 0.4 77 25 11   96.41     LegendNANA

Notes on Data Quality.

Legend

  • E = Estimated
  • M = Missing
  • NA = Not Available
  • ‡ = Partner data that is not subject to review by the National Climate Archives
Date modified: